Regional Weather Roundup
Issued by NWS Cleveland, OH

Home | Current Version | Previous Version | Text Only | Print | Product List | Glossary On
Versions: 1 2 3 4 5 6 7 8 9 10 11 12 13 14 15 16 17 18 19 20 21 22 23 24 25 26 27 28 29 30 31 32 33 34 35 36 37 38 39 40 41 42 43 44 45 46 47 48 49 50
000
ASUS41 KCLE 220112
RWRCLE
OHIO REGIONAL WEATHER ROUNDUP
NATIONAL WEATHER SERVICE WILMINGTON, OH
800 PM EST TUE FEB 21 2017

NOTE: "FAIR" INDICATES FEW OR NO CLOUDS BELOW 12,000 FEET WITH NO
SIGNIFICANT WEATHER AND/OR OBSTRUCTIONS TO VISIBILITY.

OHZ001>008-015>018-024>027-034-035-043-044-220200-
   NORTHWEST OHIO

CITY           SKY/WX    TMP DP  RH WIND       PRES   REMARKS
DEFIANCE       MOCLDY    50  48  93 N3        29.95S
FINDLAY        LGT RAIN  56  47  71 S3        29.94F
TOLEDO EXPRESS CLOUDY    53  50  89 CALM      29.95R
TOLEDO EXEC    CLOUDY    53  50  89 CALM      29.96R
LIMA           MOCLDY    56  49  77 CALM      29.94F
$$

OHZ009>014-019>023-028>033-038-089-220200-
   NORTHEAST OHIO

CITY           SKY/WX    TMP DP  RH WIND       PRES   REMARKS
CLE-HOPKINS    CLOUDY    60  44  55 NW5       29.98R
CLE-LAKEFRONT  CLOUDY    47  40  76 NE3       29.95R
CUY CO. ARPT   CLOUDY    55  46  71 CALM      29.97R
LORAIN-ELYRIA  MOCLDY    55  44  66 CALM      29.96S
ASHTABULA      CLOUDY    53  46  77 N5        29.97R
AKRON-CANTON   CLOUDY    60  44  55 W3        29.97S
WOOSTER        MOCLDY    57  46  66 SW7       29.97S
MANSFIELD      CLOUDY    58  47  66 S6        29.96F
YOUNGSTOWN     CLOUDY    59  44  57 S5        29.98F
$$

OHZ042-051>053-060>062-070>072-077>081-220200-
  SOUTHWEST OHIO

CITY           SKY/WX    TMP DP  RH WIND       PRES   REMARKS
CINC-COVINGTON LGT RAIN  56  55  97 SE6       29.99S FOG
CINC-LUNKEN    LGT RAIN  55  55 100 CALM      30.01S VSB 1
HAMILTON       LGT RAIN  55  55 100 CALM      30.00S FOG
DAYTON         CLOUDY    58  50  75 S10       29.98S
WRIGHT-PAT AFB DRIZZLE   58  54  84 S13       29.97S
DAYTON GENERAL LGT RAIN  55  53  93 S6        29.98S
WILMINGTON     LGT RAIN  53  52  96 CALM      30.00S
$$

OHZ036-037-039>041-045>050-054>059-063>069-073>076-082>088-220200-
  CENTRAL AND SOUTHEAST OHIO

CITY           SKY/WX    TMP DP  RH WIND       PRES   REMARKS
COLUMBUS       CLOUDY    61  51  70 S7        29.97F
OSU AIRPORT    FAIR      59  51  75 SW5       29.97S
BOLTON FIELD   DRIZZLE   56  52  85 S9        29.98S
RICKENBACK AFB CLOUDY    55  53  92 S6        29.98F
NEWARK         MOCLDY    56  50  80 S7        29.97F
MARION         CLOUDY    58  46  64 S6        29.97S
LANCASTER      CLOUDY    55  51  86 CALM      30.00S
ZANESVILLE     CLOUDY    57  49  74 S5        29.98F
NEW PHILLY     FAIR      58  47  66 SE5       29.98F
$$




USA.gov is the U.S. government's official web portal to all federal, state and local government web resources and services.